Terminal Aerodrome Forecast
Issued by NWS Honolulu, HI

Home | Current Version | Previous Version | Text Only | Print | Product List | Glossary On
Versions: 1 2 3 4 5 6 7 8 9 10 11 12 13 14 15 16 17 18 19 20 21 22 23 24 25 26 27 28 29 30 31 32 33 34 35 36 37 38 39 40 41 42 43 44 45 46 47 48 49 50
000
FTPA31 PHFO 162300
TAFHNL
TAF
PHNL 162329Z 1700/1806 04011G16KT P6SM FEW025 SCT045
     FM170500 05008KT P6SM FEW025 SCT045
     FM171000 32005KT P6SM FEW025
     FM172000 13008KT P6SM SCT025 BKN050
     FM180300 04005KT P6SM FEW025 SCT050=

USA.gov is the U.S. government's official web portal to all federal, state and local government web resources and services.